ZS6XK Weather Reports


time (UTC)temp
C
wind
direction
speed
KPH
gust
KPH
rain 1hr
cm
rain 24hr
cm
rain mn
cm
humidity
%
barometer
mb
20260504173551 16 0 0.0 0.0 0.00 0.00 0.00 87 1022.5
20260504173056 16 0 0.0 0.0 0.00 0.00 0.00 86 1022.5
20260504172551 16 0 0.0 0.0 0.00 0.00 0.00 86 1022.4
20260504172052 16 0 0.0 0.0 0.00 0.00 0.00 86 1022.4
20260504171553 16 0 0.0 0.0 0.00 0.00 0.00 86 1022.5
20260504171052 16 0 0.0 0.0 0.00 0.00 0.00 86 1022.4
20260504170552 16 0 0.0 0.0 0.00 0.00 0.00 86 1022.5
20260504151051 20 0 0.0 3.2 0.00 0.00 0.00 72 1022.6
20260504150552 20 0 0.0 3.2 0.00 0.00 0.00 72 1022.6
20260504141050 22 0 1.6 8.0 0.00 0.00 0.00 68 1022.8
20260504140552 22 67 0.0 4.8 0.00 0.00 0.00 67 1022.8
20260504130552 21 56 1.6 11.3 0.00 0.00 0.00 69 1022.8
20260504110554 21 45 3.2 8.0 0.00 0.00 0.00 70 1024.2
20260504100552 21 195 1.6 9.7 0.00 0.00 0.00 71 1025.3
20260504100106 21 11 3.2 9.7 0.00 0.00 0.00 71 1025.3
20260504081555 21 300 1.6 4.8 0.00 0.00 0.00 75 1026.6
20260504081051 20 330 0.0 4.8 0.00 0.00 0.00 75 1026.8
20260504080552 20 98 0.0 8.0 0.00 0.00 0.00 75 1026.7
20260504050552 12 0 0.0 0.0 0.00 0.00 0.00 93 1026.4
20260504045551 12 0 0.0 0.0 0.00 0.00 0.00 93 1026.3
20260504045051 12 0 0.0 0.0 0.00 0.00 0.00 93 1026.3
20260504044559 12 0 0.0 0.0 0.00 0.00 0.00 93 1026.2
20260504044052 12 0 0.0 0.0 0.00 0.00 0.00 93 1026.1
20260504043549 12 0 0.0 0.0 0.00 0.00 0.00 93 1026.1
20260504043101 12 0 0.0 0.0 0.00 0.00 0.00 93 1026.0
20260504042552 12 0 0.0 0.0 0.00 0.00 0.00 93 1026.0
20260504042055 12 0 0.0 0.0 0.00 0.00 0.00 93 1026.0
20260504041556 12 0 0.0 0.0 0.00 0.00 0.00 93 1026.0
20260504041054 12 0 0.0 0.0 0.00 0.00 0.00 93 1026.0
20260504040549 12 0 0.0 0.0 0.00 0.00 0.00 93 1026.0
20260504040104 12 0 0.0 0.0 0.00 0.00 0.00 93 1026.0
20260504035551 12 0 0.0 0.0 0.00 0.00 0.00 93 1026.0
20260504035053 12 0 0.0 0.0 0.00 0.00 0.00 93 1026.0
20260504034601 12 0 0.0 0.0 0.00 0.00 0.00 93 1026.0
20260504034052 12 0 0.0 0.0 0.00 0.00 0.00 93 1026.1
20260504033552 12 0 0.0 0.0 0.00 0.00 0.00 93 1026.0
20260504033126 12 0 0.0 0.0 0.00 0.00 0.00 93 1026.0
20260504032551 12 0 0.0 0.0 0.00 0.00 0.00 93 1025.9
20260504032049 12 0 0.0 0.0 0.00 0.00 0.00 93 1025.9
20260504031557 12 0 0.0 0.0 0.00 0.00 0.00 93 1025.9
20260504031051 12 0 0.0 0.0 0.00 0.00 0.00 93 1025.9
20260504030549 12 0 0.0 0.0 0.00 0.00 0.00 93 1025.9
20260504030059 12 0 0.0 0.0 0.00 0.00 0.00 93 1025.9
20260504025550 12 0 0.0 0.0 0.00 0.00 0.00 93 1025.8
20260504025053 12 0 0.0 0.0 0.00 0.00 0.00 93 1025.8
20260504024552 12 0 0.0 0.0 0.00 0.00 0.00 93 1025.8
20260504024052 12 0 0.0 0.0 0.00 0.00 0.00 93 1025.6
20260504023552 12 0 0.0 0.0 0.00 0.00 0.00 93 1025.8
20260504023101 12 0 0.0 0.0 0.00 0.00 0.00 93 1025.8
20260504022552 12 0 0.0 0.0 0.00 0.00 0.00 93 1025.8
20260504022048 12 0 0.0 0.0 0.00 0.00 0.00 93 1025.8
20260504021552 12 0 0.0 0.0 0.00 0.00 0.00 93 1025.8
20260504021052 12 0 0.0 0.0 0.00 0.00 0.00 93 1025.8
20260504020552 12 0 0.0 0.0 0.00 0.00 0.00 92 1025.8
20260504020058 12 0 0.0 0.0 0.00 0.00 0.00 92 1025.8
20260504015550 12 0 0.0 0.0 0.00 0.00 0.00 92 1025.8
20260504015049 12 0 0.0 0.0 0.00 0.00 0.00 92 1025.9
20260504014553 12 0 0.0 0.0 0.00 0.00 0.00 92 1025.8
20260504014052 12 0 0.0 0.0 0.00 0.00 0.00 92 1025.8
20260504013552 12 0 0.0 0.0 0.00 0.00 0.00 92 1025.8
20260504013106 12 0 0.0 0.0 0.00 0.00 0.00 92 1025.9
20260504012553 12 0 0.0 0.0 0.00 0.00 0.00 92 1026.0
20260504012053 12 0 0.0 0.0 0.00 0.00 0.00 92 1026.1
20260504011552 12 0 0.0 0.0 0.00 0.00 0.00 92 1026.0
20260504011052 12 0 0.0 0.0 0.00 0.00 0.00 91 1026.1
20260504010552 12 0 0.0 0.0 0.00 0.00 0.00 91 1026.1
20260504010104 12 0 0.0 0.0 0.00 0.00 0.00 91 1026.1
20260504005556 12 0 0.0 0.0 0.00 0.00 0.00 91 1026.0
20260504005052 12 0 0.0 0.0 0.00 0.00 0.00 91 1026.1
20260504004605 12 0 0.0 0.0 0.00 0.00 0.00 91 1026.1
20260504004052 12 0 0.0 0.0 0.00 0.00 0.00 91 1026.1
20260504003554 12 0 0.0 0.0 0.00 0.00 0.00 90 1026.2
20260504003054 13 0 0.0 0.0 0.00 0.00 0.00 90 1026.1
20260504002553 13 0 0.0 0.0 0.00 0.00 0.00 90 1026.2
20260504002053 13 0 0.0 0.0 0.00 0.00 0.00 90 1026.2
20260504001601 13 0 0.0 0.0 0.00 0.00 0.00 90 1026.3
20260504001054 13 0 0.0 0.0 0.00 0.00 0.00 90 1026.3
20260504000552 12 0 0.0 0.0 0.00 0.00 0.00 91 1026.3
20260504000053 13 0 0.0 0.0 0.00 0.00 0.00 91 1026.3
20260503235554 12 0 0.0 0.0 0.00 0.00 0.00 91 1026.4
20260503235049 12 0 0.0 0.0 0.00 0.00 0.00 91 1026.5
20260503234554 12 0 0.0 0.0 0.00 0.00 0.00 91 1026.5
20260503234052 12 0 0.0 0.0 0.00 0.00 0.00 91 1026.6
20260503233552 12 0 0.0 0.0 0.00 0.00 0.00 91 1026.6
20260503233051 12 0 0.0 0.0 0.00 0.00 0.00 91 1026.6
20260503232552 13 0 0.0 0.0 0.00 0.00 0.00 91 1026.7
20260503232052 13 0 0.0 0.0 0.00 0.00 0.00 91 1026.7
20260503231556 13 0 0.0 0.0 0.00 0.00 0.00 91 1026.8
20260503231052 13 0 0.0 0.0 0.00 0.00 0.00 90 1026.9
20260503230552 13 0 0.0 0.0 0.00 0.00 0.00 90 1026.9
20260503230100 13 0 0.0 0.0 0.00 0.00 0.00 90 1026.8
20260503225552 13 0 0.0 0.0 0.00 0.00 0.00 90 1026.9
20260503225052 13 0 0.0 0.0 0.00 0.00 0.00 90 1026.9
20260503224600 13 0 0.0 0.0 0.00 0.00 0.00 90 1026.9
20260503224053 13 0 0.0 0.0 0.00 0.00 0.00 90 1027.0
20260503223553 13 0 0.0 0.0 0.00 0.00 0.00 90 1027.0
20260503223057 13 0 0.0 0.0 0.00 0.00 0.00 90 1027.0
20260503222552 13 0 0.0 0.0 0.00 0.00 0.00 90 1027.1
20260503222052 13 0 0.0 0.0 0.00 0.00 0.00 90 1027.1
20260503221556 13 0 0.0 0.0 0.00 0.00 0.00 90 1027.1
20260503221054 13 0 0.0 0.0 0.00 0.00 0.00 90 1027.1
20260503220552 13 0 0.0 0.0 0.00 0.00 0.00 90 1027.2
20260503220053 13 0 0.0 0.0 0.00 0.00 0.00 90 1027.2
20260503215552 13 0 0.0 0.0 0.00 0.00 0.00 89 1027.4
20260503215052 13 0 0.0 0.0 0.00 0.00 0.00 89 1027.2
20260503214552 13 0 0.0 0.0 0.00 0.00 0.00 89 1027.2
20260503214053 13 0 0.0 0.0 0.00 0.00 0.00 89 1027.3
20260503213553 13 0 0.0 0.0 0.00 0.00 0.00 89 1027.2
20260503213108 13 0 0.0 0.0 0.00 0.00 0.00 89 1027.4
20260503212555 13 0 0.0 0.0 0.00 0.00 0.00 89 1027.5
20260503212053 13 0 0.0 0.0 0.00 0.00 0.00 89 1027.6
20260503211555 13 0 0.0 0.0 0.00 0.00 0.00 89 1027.7
20260503211052 13 0 0.0 0.0 0.00 0.00 0.00 89 1027.6
20260503210555 13 0 0.0 0.0 0.00 0.00 0.00 89 1027.7
20260503210059 13 0 0.0 0.0 0.00 0.00 0.00 89 1027.8
20260503205552 13 0 0.0 0.0 0.00 0.00 0.00 89 1027.8
20260503205052 13 0 0.0 0.0 0.00 0.00 0.00 89 1027.9
20260503204600 13 0 0.0 0.0 0.00 0.00 0.00 89 1027.9
20260503204051 13 0 0.0 0.0 0.00 0.00 0.00 89 1027.9
20260503203554 13 0 0.0 0.0 0.00 0.00 0.00 89 1027.9
20260503203051 13 0 0.0 0.0 0.00 0.00 0.00 88 1028.1
20260503202552 13 0 0.0 0.0 0.00 0.00 0.00 88 1028.0
20260503202052 13 0 0.0 0.0 0.00 0.00 0.00 88 1028.0
20260503201553 13 0 0.0 0.0 0.00 0.00 0.00 88 1028.1
20260503201053 13 0 0.0 0.0 0.00 0.00 0.00 88 1028.1
20260503200553 13 0 0.0 0.0 0.00 0.00 0.00 88 1028.1
20260503200058 13 0 0.0 0.0 0.00 0.00 0.00 87 1028.1
20260503195552 13 0 0.0 0.0 0.00 0.00 0.00 87 1028.1
20260503195049 13 0 0.0 0.0 0.00 0.00 0.00 87 1028.1
20260503194553 13 0 0.0 0.0 0.00 0.00 0.00 87 1028.1
20260503194053 13 0 0.0 0.0 0.00 0.00 0.00 87 1028.0
20260503193553 13 0 0.0 0.0 0.00 0.00 0.00 87 1028.0
20260503193055 13 0 0.0 0.0 0.00 0.00 0.00 86 1028.0
20260503192549 13 0 0.0 0.0 0.00 0.00 0.00 86 1028.0
20260503192052 14 0 0.0 0.0 0.00 0.00 0.00 86 1028.1
20260503191610 14 0 0.0 0.0 0.00 0.00 0.00 86 1028.0
20260503191052 14 0 0.0 0.0 0.00 0.00 0.00 86 1028.1
20260503190552 14 0 0.0 0.0 0.00 0.00 0.00 86 1027.9
20260503190052 14 0 0.0 0.0 0.00 0.00 0.00 85 1028.0
20260503185556 14 0 0.0 0.0 0.00 0.00 0.00 86 1027.9
20260503185053 14 0 0.0 0.0 0.00 0.00 0.00 86 1027.9
20260503184558 14 0 0.0 0.0 0.00 0.00 0.00 85 1027.9
20260503184058 14 0 0.0 0.0 0.00 0.00 0.00 85 1027.8
20260503183552 14 0 0.0 0.0 0.00 0.00 0.00 85 1027.7
20260503183111 14 0 0.0 0.0 0.00 0.00 0.00 84 1027.7
20260503182552 15 0 0.0 0.0 0.00 0.00 0.00 84 1027.7
20260503182053 15 0 0.0 0.0 0.00 0.00 0.00 85 1027.6
20260503181552 15 0 0.0 0.0 0.00 0.00 0.00 84 1027.6
20260503181053 15 0 0.0 0.0 0.00 0.00 0.00 83 1027.6
20260503180549 15 0 0.0 0.0 0.00 0.00 0.00 83 1027.6
20260503180053 15 0 0.0 0.0 0.00 0.00 0.00 83 1027.6
20260503175553 15 0 0.0 0.0 0.00 0.00 0.00 82 1027.6
20260503175052 15 0 0.0 0.0 0.00 0.00 0.00 82 1027.6
20260503174554 15 0 0.0 0.0 0.00 0.00 0.00 82 1027.4
20260503174052 15 0 0.0 0.0 0.00 0.00 0.00 82 1027.4